TimeCDT,TemperatureF,Dew PointF,Humidity,Sea Level PressureIn,VisibilityMPH,Wind Direction,Wind SpeedMPH,Gust SpeedMPH,PrecipitationIn,Events,Conditions,WindDirDegrees,DateUTC
12:15 AM,68.0,64.6,89,29.96,10.0,Calm,Calm,-,N/A,,Unknown,0,2013-05-03 05:15:00
12:35 AM,67.5,64.4,90,29.95,10.0,Calm,Calm,-,N/A,,Unknown,0,2013-05-03 05:35:00
12:55 AM,67.5,64.2,89,29.95,10.0,Calm,Calm,-,N/A,,Unknown,0,2013-05-03 05:55:00
1:15 AM,67.3,64.2,90,29.94,10.0,Calm,Calm,-,N/A,,Unknown,0,2013-05-03 06:15:00
1:35 AM,67.3,64.4,90,29.94,7.0,North,3.5,-,N/A,,Unknown,360,2013-05-03 06:35:00
1:55 AM,67.6,64.6,90,29.93,10.0,Calm,Calm,-,N/A,,Unknown,0,2013-05-03 06:55:00
2:15 AM,67.6,64.6,90,29.92,10.0,Calm,Calm,-,N/A,,Unknown,0,2013-05-03 07:15:00
2:35 AM,67.8,64.6,89,29.92,10.0,Calm,Calm,-,N/A,,Unknown,0,2013-05-03 07:35:00
2:55 AM,68.9,64.6,86,29.92,10.0,Calm,Calm,-,N/A,,Unknown,0,2013-05-03 07:55:00
3:15 AM,68.9,64.8,87,29.91,10.0,Calm,Calm,-,N/A,,Unknown,0,2013-05-03 08:15:00
3:35 AM,68.4,64.8,88,29.91,10.0,Calm,Calm,-,N/A,,Unknown,0,2013-05-03 08:35:00
3:55 AM,68.5,64.8,88,29.91,10.0,Calm,Calm,-,N/A,,Unknown,0,2013-05-03 08:55:00
4:15 AM,68.9,64.6,86,29.92,10.0,Calm,Calm,-,N/A,,Unknown,0,2013-05-03 09:15:00
4:35 AM,68.9,64.4,86,29.92,10.0,Calm,Calm,-,N/A,,Unknown,0,2013-05-03 09:35:00
4:55 AM,68.9,64.4,86,29.91,10.0,Calm,Calm,-,N/A,,Unknown,0,2013-05-03 09:55:00
5:15 AM,68.5,64.4,87,29.91,10.0,Calm,Calm,-,N/A,,Unknown,0,2013-05-03 10:15:00
5:35 AM,68.5,64.4,87,29.91,10.0,Calm,Calm,-,N/A,,Unknown,0,2013-05-03 10:35:00
5:55 AM,68.2,64.4,88,29.91,10.0,Calm,Calm,-,N/A,,Unknown,0,2013-05-03 10:55:00
6:15 AM,68.5,64.0,85,29.92,10.0,Calm,Calm,-,N/A,,Unknown,0,2013-05-03 11:15:00
6:35 AM,68.4,64.2,87,29.92,10.0,Calm,Calm,-,N/A,,Unknown,0,2013-05-03 11:35:00
6:55 AM,68.5,64.0,85,29.93,10.0,Calm,Calm,-,N/A,,Unknown,0,2013-05-03 11:55:00
7:15 AM,68.5,64.0,85,29.92,10.0,North,-9999.0,-,N/A,,Unknown,0,2013-05-03 12:15:00
7:35 AM,68.9,64.0,84,29.92,10.0,Calm,Calm,-,N/A,,Unknown,0,2013-05-03 12:35:00
7:55 AM,69.3,63.9,83,29.93,10.0,Calm,Calm,-,N/A,,Unknown,0,2013-05-03 12:55:00
8:15 AM,69.8,63.9,81,29.93,10.0,East,3.5,-,N/A,,Unknown,100,2013-05-03 13:15:00
8:35 AM,70.7,64.4,80,29.92,10.0,East,4.6,-,N/A,,Unknown,80,2013-05-03 13:35:00
8:55 AM,71.6,63.9,76,29.93,10.0,ESE,6.9,-,N/A,,Unknown,110,2013-05-03 13:55:00
9:15 AM,71.2,63.7,77,29.93,10.0,ESE,5.8,-,N/A,,Unknown,120,2013-05-03 14:15:00
9:35 AM,71.1,63.5,77,29.93,10.0,SE,3.5,-,N/A,,Unknown,140,2013-05-03 14:35:00
9:55 AM,71.6,63.7,76,29.93,10.0,SSE,5.8,-,N/A,,Unknown,150,2013-05-03 14:55:00
10:15 AM,64.4,59.0,83,29.94,10.0,WNW,13.8,19.6,N/A,Rain,Rain,300,2013-05-03 15:15:00
10:35 AM,62.1,58.1,87,29.95,4.0,NW,9.2,-,0.02,,Heavy Drizzle,320,2013-05-03 15:35:00
11:15 AM,61.9,57.9,87,29.95,7.0,NW,10.4,-,N/A,,Overcast,320,2013-05-03 16:15:00
11:35 AM,62.1,57.4,85,29.95,10.0,NW,11.5,16.1,N/A,,Overcast,320,2013-05-03 16:35:00
11:55 AM,62.1,57.4,85,29.95,10.0,NW,11.5,-,N/A,,Overcast,320,2013-05-03 16:55:00
12:35 PM,62.1,58.3,87,29.94,3.0,NNW,8.1,-,0.02,,Light Drizzle,330,2013-05-03 17:35:00
12:55 PM,61.5,57.0,85,29.94,7.0,NW,10.4,17.3,0.02,,Overcast,320,2013-05-03 17:55:00
1:15 PM,61.7,56.7,84,29.93,7.0,NNW,11.5,16.1,N/A,,Overcast,330,2013-05-03 18:15:00
1:35 PM,61.7,56.3,82,29.94,10.0,NW,11.5,-,N/A,,Overcast,320,2013-05-03 18:35:00
1:55 PM,60.8,55.6,83,29.94,10.0,NW,12.7,-,N/A,,Overcast,320,2013-05-03 18:55:00
2:15 PM,59.9,55.0,84,29.95,10.0,NW,12.7,16.1,N/A,,Overcast,320,2013-05-03 19:15:00
2:35 PM,61.0,54.1,78,29.94,10.0,NW,10.4,17.3,N/A,,Overcast,320,2013-05-03 19:35:00
2:55 PM,59.7,53.2,79,29.95,10.0,North,-9999.0,-,N/A,,Overcast,0,2013-05-03 19:55:00
3:15 PM,58.5,52.7,81,29.95,10.0,NNW,13.8,18.4,N/A,,Overcast,330,2013-05-03 20:15:00
3:35 PM,58.1,51.3,78,29.94,10.0,NNW,13.8,19.6,N/A,,Overcast,340,2013-05-03 20:35:00
3:55 PM,57.6,52.3,83,29.94,10.0,NW,10.4,17.3,N/A,,Overcast,320,2013-05-03 20:55:00
4:15 PM,56.8,52.9,87,29.94,4.0,NW,11.5,-,N/A,Rain,Light Rain,320,2013-05-03 21:15:00
4:35 PM,56.5,52.5,87,29.94,5.0,NNW,12.7,-,N/A,,Light Drizzle,340,2013-05-03 21:35:00
4:55 PM,56.7,52.3,85,29.94,10.0,NNW,10.4,19.6,N/A,,Overcast,330,2013-05-03 21:55:00
5:15 PM,57.0,52.2,84,29.95,10.0,NNW,10.4,-,N/A,,Overcast,330,2013-05-03 22:15:00
5:35 PM,57.2,51.3,81,29.95,10.0,NNW,12.7,17.3,N/A,,Overcast,330,2013-05-03 22:35:00
5:55 PM,56.7,49.5,77,29.95,10.0,NNW,16.1,20.7,N/A,,Overcast,340,2013-05-03 22:55:00
6:15 PM,55.9,49.5,79,29.96,10.0,NNW,13.8,19.6,N/A,,Mostly Cloudy,330,2013-05-03 23:15:00
6:35 PM,54.9,48.4,79,29.97,10.0,NNW,16.1,20.7,N/A,,Scattered Clouds,330,2013-05-03 23:35:00
6:55 PM,54.3,47.8,79,29.98,10.0,NW,13.8,18.4,N/A,,Unknown,320,2013-05-03 23:55:00
7:15 PM,53.2,46.2,77,29.99,10.0,NNW,13.8,26.5,N/A,,Unknown,330,2013-05-04 00:15:00
7:35 PM,52.9,46.4,79,30.00,10.0,NNW,11.5,17.3,N/A,,Unknown,340,2013-05-04 00:35:00
7:55 PM,52.2,45.0,76,30.01,10.0,NNW,13.8,26.5,N/A,,Unknown,340,2013-05-04 00:55:00
8:15 PM,51.8,44.2,75,30.03,10.0,North,16.1,25.3,N/A,,Unknown,350,2013-05-04 01:15:00
8:35 PM,51.3,44.2,77,30.03,10.0,North,15.0,24.2,N/A,,Unknown,350,2013-05-04 01:35:00
8:55 PM,51.1,43.2,74,30.04,10.0,NNW,13.8,20.7,N/A,,Unknown,340,2013-05-04 01:55:00
9:15 PM,50.7,42.4,73,30.05,10.0,North,15.0,-,N/A,,Unknown,350,2013-05-04 02:15:00
9:35 PM,50.0,41.5,73,30.05,10.0,North,10.4,-,N/A,,Unknown,360,2013-05-04 02:35:00
9:55 PM,49.1,41.9,76,30.05,10.0,North,6.9,-,N/A,,Unknown,360,2013-05-04 02:55:00
10:15 PM,48.6,41.9,78,30.05,10.0,North,6.9,-,N/A,,Clear,350,2013-05-04 03:15:00
10:35 PM,47.8,42.1,80,30.06,10.0,North,6.9,-,N/A,,Clear,350,2013-05-04 03:35:00
10:55 PM,47.3,42.3,83,30.05,10.0,North,5.8,-,N/A,,Clear,350,2013-05-04 03:55:00
11:15 PM,46.9,42.1,83,30.05,10.0,North,4.6,-,N/A,,Unknown,350,2013-05-04 04:15:00
11:35 PM,46.8,41.9,83,30.05,10.0,North,4.6,-,N/A,,Unknown,350,2013-05-04 04:35:00
11:55 PM,46.0,41.9,85,30.05,10.0,North,3.5,-,N/A,,Unknown,360,2013-05-04 04:55:00